User: anonymous   Login
Location: Columbia
(38.9520°N, 92.3340°W)
Time: 22:18:13
(UTC-06:00)
Language:

Cosmos 2100 Rocket - Orbit

View from above orbital plane
View from above orbital plane
View from above satellite
View from above satellite

Ground track
Ground track

The orbit data is extracted from the following two-line orbital elements,

1 20805U 90083B   17020.56939476  .00000110  00000-0  97264-4 0  9998
2 20805  82.9375 170.5480 0031822  86.5142 345.8628 13.75814770323106
Epoch (UTC): 20 January 2017 13:39:55
Eccentricity: 0.0031822
inclination: 82.9375°
perigee height: 955 km
apogee height: 1002 km
right ascension of ascending node: 170.5480°
argument of perigee: 86.5142°
revolutions per day: 13.75814770
mean anomaly at epoch: 345.8628°
orbit number at epoch: 32310

The dashed part of the orbit path shows where the satellite is in the earth's shadow,  

DLR